HB9FVK-10 Weather Reports


Display with metric or nautical units.
time (UTC)temp
F
wind
direction
speed
MPH
gust
MPH
rain 1hr
in
rain 24hr
in
rain mn
in
humidity
%
barometer
mb
20260505073100 52 128 4.0 6.0 0.00 0.00 0.00 92 1015.0
20260505072059 52 113 4.0 7.0 0.00 0.00 0.00 92 1015.1
20260505071058 52 116 5.0 8.0 0.00 0.00 0.00 91 1015.2
20260505070117 52 131 4.0 7.0 0.00 0.00 0.00 92 1015.1
20260505065056 52 52 3.0 6.0 0.00 0.00 0.00 92 1015.3
20260505064055 51 74 7.0 12.0 0.00 0.00 0.00 91 1015.3
20260505063054 51 64 3.0 4.0 0.00 0.00 0.00 91 1015.3
20260505062053 51 91 2.0 4.0 0.00 0.00 0.00 92 1015.5
20260505061051 51 120 4.0 6.0 0.00 0.00 0.00 92 1015.4
20260505060110 51 124 3.0 6.0 0.00 0.00 0.00 92 1015.4
20260505055049 50 99 3.0 6.0 0.00 0.00 0.00 93 1015.5
20260505054047 50 66 4.0 7.0 0.00 0.00 0.00 93 1015.4
20260505053046 49 151 3.0 4.0 0.00 0.00 0.00 93 1015.4
20260505052106 49 113 4.0 6.0 0.00 0.00 0.00 94 1015.3
20260505051044 48 95 4.0 6.0 0.00 0.00 0.00 94 1015.2
20260505041037 48 142 3.0 5.0 0.00 0.00 0.00 95 1015.5
20260505040036 48 147 4.0 5.0 0.00 0.00 0.00 95 1015.5
20260505035035 48 161 4.0 6.0 0.00 0.00 0.00 95 1015.4
20260505034034 48 102 3.0 6.0 0.00 0.00 0.00 95 1015.4
20260505033032 48 84 2.0 4.0 0.00 0.00 0.00 96 1015.6
20260505032031 47 68 2.0 4.0 0.00 0.00 0.00 95 1015.6
20260505031051 47 52 3.0 4.0 0.00 0.00 0.00 95 1015.6
20260505030049 47 93 2.0 5.0 0.00 0.00 0.00 95 1015.8
20260505025048 47 66 3.0 5.0 0.00 0.00 0.00 95 1015.7
20260505024027 47 144 3.0 5.0 0.00 0.00 0.00 95 1015.8
20260505023026 47 155 2.0 5.0 0.00 0.00 0.00 95 1015.9
20260505022026 47 118 3.0 9.0 0.00 0.00 0.00 95 1015.9
20260505021024 47 145 5.0 9.0 0.00 0.00 0.00 95 1016.0
20260505020022 48 151 4.0 8.0 0.00 0.00 0.00 94 1016.0
20260505015021 48 156 5.0 8.0 0.00 0.00 0.00 95 1016.1
20260505014021 48 147 6.0 8.0 0.00 0.00 0.00 95 1016.0
20260505013019 48 140 4.0 5.0 0.00 0.00 0.00 95 1016.1
20260505012018 47 126 3.0 4.0 0.00 0.00 0.00 95 1016.2
20260505011017 47 136 3.0 5.0 0.00 0.00 0.00 95 1016.3
20260505010116 47 129 3.0 4.0 0.00 0.00 0.00 95 1016.4
20260505005115 47 128 4.0 5.0 0.00 0.00 0.00 95 1016.6
20260505004133 48 120 5.0 6.0 0.00 0.00 0.00 95 1016.7
20260505003113 47 141 4.0 6.0 0.00 0.00 0.00 95 1016.9
20260505002111 48 135 4.0 5.0 0.00 0.00 0.00 94 1017.0
20260505001110 48 143 4.0 5.0 0.00 0.00 0.00 94 1017.2
20260505000109 48 142 3.0 4.0 0.00 0.00 0.00 95 1017.1
20260504235107 48 117 4.0 5.0 0.00 0.00 0.00 95 1017.2
20260504234106 48 147 4.0 5.0 0.00 0.00 0.00 94 1017.4
20260504233106 48 149 5.0 6.0 0.00 0.00 0.00 94 1017.4
20260504232104 48 146 5.0 6.0 0.00 0.00 0.00 94 1017.6
20260504231103 48 154 5.0 6.0 0.00 0.00 0.00 94 1017.8
20260504225120 49 138 5.0 6.0 0.00 0.00 0.00 94 1017.7
20260504224120 49 136 4.0 6.0 0.00 0.00 0.00 94 1017.7
20260504223058 49 144 5.0 6.0 0.00 0.00 0.00 95 1017.9
20260504222117 49 124 4.0 5.0 0.00 0.00 0.00 95 1017.9
20260504221057 49 121 3.0 4.0 0.00 0.00 0.00 94 1018.0
20260504220055 49 101 4.0 5.0 0.00 0.00 0.00 94 1018.1
20260504215053 50 114 3.0 5.0 0.00 0.00 0.00 93 1018.0
20260504214112 50 139 4.0 5.0 0.00 0.00 0.00 93 1018.0
20260504213051 51 130 3.0 4.0 0.00 0.00 0.00 92 1018.2
20260504212050 51 158 3.0 4.0 0.00 0.00 0.00 91 1018.2
20260504211049 51 157 2.0 3.0 0.00 0.00 0.00 92 1018.3
20260504210109 52 136 3.0 4.0 0.00 0.00 0.00 92 1018.6
20260504205047 52 124 3.0 4.0 0.00 0.00 0.00 91 1018.6
20260504204045 52 139 3.0 4.0 0.00 0.00 0.00 90 1018.7
20260504203044 53 124 2.0 4.0 0.00 0.00 0.00 90 1018.6
20260504202044 53 132 2.0 3.0 0.00 0.00 0.00 90 1018.8
20260504201043 53 131 3.0 4.0 0.00 0.00 0.00 90 1018.6
20260504200041 53 125 2.0 3.0 0.00 0.00 0.00 90 1018.6
20260504195040 53 134 1.0 2.0 0.00 0.00 0.00 89 1018.6
20260504194058 53 125 1.0 2.0 0.00 0.00 0.00 87 1018.6
20260504193037 54 97 1.0 2.0 0.00 0.00 0.00 87 1018.4
20260504192036 54 101 2.0 3.0 0.00 0.00 0.00 85 1018.4
20260504191035 54 125 2.0 3.0 0.00 0.00 0.00 83 1018.4
20260504190033 54 100 3.0 3.0 0.00 0.00 0.00 83 1018.4
20260504185032 54 100 1.0 2.0 0.00 0.00 0.00 84 1018.5
20260504184031 55 172 1.0 5.0 0.00 0.00 0.00 83 1018.5
20260504183051 55 97 2.0 3.0 0.00 0.00 0.00 84 1018.5
20260504182029 55 77 2.0 3.0 0.00 0.00 0.00 86 1018.6
20260504181028 55 91 3.0 4.0 0.00 0.00 0.00 84 1018.6
20260504180026 55 86 3.0 4.0 0.00 0.00 0.00 85 1018.7
20260504175045 55 36 1.0 4.0 0.00 0.00 0.00 85 1018.8
20260504174024 55 245 1.0 3.0 0.00 0.00 0.00 84 1018.9
20260504173023 55 265 3.0 7.0 0.00 0.00 0.00 84 1018.8
20260504172022 55 280 6.0 8.0 0.00 0.00 0.00 83 1018.9
20260504171042 56 243 4.0 7.0 0.00 0.00 0.00 83 1018.9
20260504160112 56 272 4.0 9.0 0.00 0.00 0.00 87 1018.9
20260504151127 59 233 8.0 14.0 0.00 0.00 0.00 78 1019.0
20260504150105 60 254 8.0 14.0 0.00 0.00 0.00 76 1018.6
20260504141100 68 337 5.0 9.0 0.00 0.00 0.00 48 1017.5
20260504081018 60 45 2.0 4.0 0.00 0.00 0.00 63 1019.7